Regional Weather Roundup
Issued by NWS

Home | Current Version | Previous Version | Text Only | Print | Product List | Glossary Off
Versions: 1 2 3 4 5 6 7 8 9 10 11 12 13 14 15 16 17 18 19 20 21 22 23 24 25 26 27 28 29 30 31 32 33 34 35 36 37 38 39 40 41 42 43 44 45 46 47 48 49 50

000
ASUS43 KBIS 160902
RWRND

NORTH DAKOTA REGIONAL WEATHER ROUNDUP
NATIONAL WEATHER SERVICE BISMARCK ND
300 AM CST SAT DEC 16 2017

NOTE: "FAIR" INDICATES FEW OR NO CLOUDS BELOW 12,000 FEET WITH NO
SIGNIFICANT WEATHER AND/OR OBSTRUCTIONS TO VISIBILITY.


NDZ001>003-009>011-017-161000-
NORTHWEST NORTH DAKOTA

CITY           SKY/WX    TMP DP  RH WIND       PRES   REMARKS
WILLISTON        N/A    N/A N/A N/A MISG      29.75R
MINOT          CLOUDY    39  33  79 W17       29.65R
MINOT AFB      CLOUDY    37  31  82 NW15      29.64R
$$

NDZ018>021-031>035-040>046-161000-
SOUTHWEST NORTH DAKOTA

CITY           SKY/WX    TMP DP  RH WIND       PRES   REMARKS
BISMARCK       LGT RAIN  39  37  92 NW10      29.70R
DICKINSON      CLOUDY    34  32  92 W14       29.72R
GARRISON         N/A     37  34  89 NW12      29.68R
HETTINGER ARPT CLOUDY    37  27  67 NW18      29.73R
$$

NDZ004>008-012>016-024-026-027-054-161000-
NORTHEAST NORTH DAKOTA

CITY           SKY/WX    TMP DP  RH WIND       PRES   REMARKS
GRAND FORKS    CLOUDY    21  18  88 E10       29.70R WCI  10
GRND FRKS AFB  CLOUDY    20  17  88 E5        29.70R WCI  14
DEVILS LAKE    CLOUDY    22  21  96 SE7       29.65R WCI  13
$$

NDZ022-023-025-028>030-036>039-047>053-161000-
SOUTHEAST NORTH DAKOTA

CITY           SKY/WX    TMP DP  RH WIND       PRES   REMARKS
FARGO          CLOUDY    26  23  88 NE5       29.65R
JAMESTOWN      CLOUDY    35  31  85 NW10      29.63R
$$




USA.gov is the U.S. government's official web portal to all federal, state and local government web resources and services.